User: anonymous
Location: Unspecified
(0.0000°N, 0.0000°E)
Time: 10:04:03
(UTC+02:00)
Language:

H-2A R/B - Orbit

View from above orbital plane
View from above orbital plane
View from above satellite
View from above satellite

Ground track
Ground track

The orbit data is extracted from the following two-line orbital elements,

1 26899U 01038B   14291.38518238  .00000729  00000-0  37396-3 0   621
2 26899 028.0366 098.0494 7149768 267.9664 011.7558 02.43947918112533
Epoch (UTC): 18 October 2014 09:14:39
Eccentricity: 0.7149768
inclination: 28.0366°
perigee height: 265 km
apogee height: 33597 km
right ascension of ascending node: 98.0494°
argument of perigee: 267.9664°
revolutions per day: 2.43947918
mean anomaly at epoch: 11.7558°
orbit number at epoch: 11253

The dashed part of the orbit path shows where the satellite is in the earth's shadow,  

DLR